Dewpoint
53 52 54 53 54 55 55 55 55 56 56 57 57 57 56 56 56 56 57 57 57 57 57 56 56 57 50 41 38 50 56 51 48 46 43 41 38 37 33 32 33 33 35 33 34 35 34
53 53 54 55 55 54 55 56 57 56 55 56 56 56 56 56 56 56 57 57 57 57 57 56 56 56 45 33 43 49 45 47 44 43 41 41 40 40 39 37 35 37 36 35 36 35 33
53 55 56 57 57 56 55 55 55 54 54 54 54 54 54 55 55 56 56 57 56 57 57 56 55 47 39 35 41 47 43 44 45 43 41 45 43 42 40 37 40 38 36 35 34 31 30
56 57 56 55 55 55 54 53 53 53 54 54 54 54 54 54 55 55 56 56 55 56 57 55 54 44 37 45 45 43 43 42 44 44 45 46 45 43 41 40 38 35 30 27 29 32 32
56 55 54 54 53 53 53 52 52 52 52 53 53 53 53 53 53 55 56 54 54 54 55 53 48 43 35 46 40 42 42 39 41 44 47 42 46 43 41 38 29 29 22 20 24 29 30
54 54 53 52 52 52 51 51 50 51 51 51 51 51 51 52 53 54 56 54 53 52 50 44 38 37 35 34 40 40 40 40 40 42 45 44 43 37 37 30 20 17 18 18 22 25 29
53 52 51 51 50 50 49 49 49 50 50 50 50 50 50 51 53 54 53 48 41 42 42 34 33 33 31 36 40 38 39 39 41 39 34 40 31 31 31 24 23 21 21 21 22 26 25
51 50 49 48 49 48 48 48 48 48 49 49 49 49 49 50 51 54 52 39 42 42 36 34 34 34 33 37 31 35 39 36 36 34 34 30 28 27 27 27 25 24 22 22 21 23 23
48 48 47 48 47 47 47 47 47 48 48 48 48 48 49 50 52 50 42 42 46 46 39 36 36 31 33 33 27 33 37 36 33 30 29 27 26 27 26 24 22 20 19 16 20 24 25
46 46 45 46 46 46 46 47 47 47 47 47 47 47 48 50 49 45 42 44 46 47 38 32 31 34 35 37 33 36 38 37 32 28 28 25 27 26 26 22 19 18 24 24 23 23 25
46 45 45 45 45 46 46 46 46 46 46 46 47 48 48 48 47 42 45 46 47 46 26 32 32 37 36 33 34 36 40 36 30 28 28 26 27 25 25 23 21 20 26 24 25 23 24
45 44 45 45 45 45 45 45 46 46 46 47 47 48 48 47 49 46 47 47 47 40 25 29 32 32 31 32 31 36 36 37 35 31 28 26 30 29 25 26 26 26 24 22 24 24 23
44 44 44 44 44 44 45 45 45 45 46 48 48 48 48 45 44 48 48 46 37 29 25 22 27 29 27 27 28 32 32 31 28 27 28 27 26 28 28 25 28 26 23 24 21 24 25
43 43 43 44 44 45 45 45 45 45 46 48 48 48 48 46 49 49 48 37 22 23 16 20 24 24 25 21 24 28 28 27 28 26 25 27 24 24 28 26 23 24 21 24 14 13 10
42 43 43 44 45 45 45 45 45 47 47 48 48 46 46 46 48 48 42 32 28 21 21 21 18 15 17 19 24 24 25 24 20 23 22 16 17 24 27 24 25 24 21 24 16 16 19
42 43 44 45 45 45 45 45 45 47 47 47 43 43 44 45 48 47 37 30 25 26 28 25 15 12 8 9 19 18 19 18 23 23 23 19 16 22 26 28 28 26 24 21 22 18 13
43 44 45 45 45 45 44 44 44 45 47 46 44 36 44 45 48 41 31 29 28 29 30 26 22 20 16 15 14 11 12 18 22 24 24 22 19 20 23 23 23 25 23 22 21 19 16
44 44 43 43 43 44 44 44 44 44 46 42 42 34 44 45 38 34 30 31 33 29 30 27 27 26 22 23 20 17 16 19 27 27 22 24 21 16 14 18 21 21 20 21 20 16 16
42 42 43 43 44 43 43 43 44 43 44 40 35 33 42 43 30 29 29 28 29 28 28 29 28 30 29 26 23 21 21 31 31 28 27 25 22 17 16 20 22 20 19 19 18 20 18
42 43 44 43 43 43 43 43 43 43 44 41 33 31 33 36 32 27 24 23 27 33 29 31 29 29 27 25 24 22 21 30 32 30 36 31 23 18 13 14 21 19 21 22 20 20 19
42 43 43 42 42 41 41 41 42 43 45 40 29 28 27 22 23 19 19 20 20 22 29 27 28 27 24 24 24 24 26 27 28 33 30 27 23 22 22 23 23 22 21 21 19 18 18
41 41 40 40 39 40 40 40 40 42 44 33 28 24 25 22 20 17 20 19 22 22 22 21 22 22 22 19 19 18 20 21 22 25 27 28 25 26 24 24 23 22 21 21 21 21 19
39 39 39 39 39 39 38 39 39 40 40 32 32 30 27 23 18 14 16 19 19 18 17 19 20 18 15 14 20 19 18 17 18 18 18 22 26 24 21 22 21 19 20 21 22 22 21
38 38 38 37 37 38 39 40 40 39 39 37 36 33 25 18 17 15 16 17 17 17 17 18 17 15 15 18 16 13 11 10 12 12 16 15 17 21 20 19 12 15 17 22 23 24 24
38 38 38 38 38 38 39 40 40 40 40 37 39 35 31 20 19 17 19 17 17 16 16 16 16 17 17 16 12 4 1 4 5 5 10 13 11 15 16 15 14 14 22 21 21 24 25
40 40 40 40 39 40 40 40 40 40 40 38 38 38 34 27 17 21 21 19 17 18 19 17 18 19 19 16 11 6 1 2 2 17 27 13 10 11 12 10 3 16 16 25 24 22 16
38 37 37 37 37 37 38 39 39 40 40 40 38 38 36 29 25 24 21 22 22 23 21 18 21 19 18 13 10 6 5 3 0 3 12 25 25 14 12 12 11 12 18 26 20 22 16
36 36 36 36 38 37 37 38 39 38 39 40 37 39 36 33 29 26 25 23 25 25 22 21 22 22 19 15 11 17 18 13 9 11 10 9 11 21 21 17 13 11 12 17 11 9 8
37 37 38 39 39 37 36 39 39 39 39 39 36 38 39 34 29 28 28 28 27 27 26 27 24 24 23 23 15 14 10 9 7 4 6 1 2 4 4 6 8 16 10 9 10 13 14
Lifted_Index
10 10 9 9 9 9 9 8 8 8 8 8 8 8 8 8 8 8 8 8 7 7 7 8 8 8 8 8 7 7 7 7 7 7 7 6 6 6 6 6 6 6 6 6 6 6 6
9 9 9 9 9 9 9 8 8 8 9 9 8 9 9 9 8 8 8 8 7 7 7 7 8 8 8 8 8 7 7 8 8 7 7 6 6 6 5 5 5 5 5 6 6 6 6
9 8 8 8 8 8 9 9 9 9 9 9 9 9 9 9 9 8 8 8 8 7 7 7 8 8 8 8 8 7 7 8 8 7 7 6 6 5 5 4 4 4 5 5 5 5 6
8 8 8 8 9 9 10 10 10 10 10 10 10 10 10 10 9 9 8 8 8 8 7 7 8 8 8 8 8 7 7 7 7 7 6 6 5 5 4 4 4 4 4 4 5 5 6
8 9 9 10 10 10 11 11 11 11 11 11 11 11 11 11 10 10 9 9 9 8 8 8 8 8 7 8 8 7 7 7 7 6 6 5 5 4 4 3 3 3 3 3 4 5 5
10 10 10 11 11 11 12 12 12 12 12 12 12 12 12 12 11 10 9 9 9 9 8 8 8 8 7 8 8 7 7 7 6 5 5 4 4 3 3 3 2 2 3 3 3 4 5
11 11 11 12 12 12 12 12 13 13 13 13 12 12 12 12 12 10 10 9 10 9 8 8 8 8 8 8 8 7 7 7 6 5 4 4 3 3 3 3 3 3 2 3 3 4 4
11 12 12 13 13 13 13 13 13 13 13 13 13 13 13 13 12 11 10 10 10 10 8 8 8 8 8 8 7 7 7 6 5 4 4 4 3 3 3 3 3 2 2 2 3 4 4
12 13 14 14 14 14 15 15 15 15 15 14 14 14 13 13 11 10 10 10 10 10 8 7 7 8 8 8 7 6 6 6 5 4 4 3 3 3 3 3 2 2 2 2 3 3 3
14 15 15 15 15 16 16 16 16 16 15 15 15 14 14 13 11 9 9 10 10 9 7 6 7 7 8 7 6 6 6 6 5 4 4 3 3 3 3 2 2 2 2 2 3 2 2
15 15 16 16 16 16 16 16 16 16 16 16 15 15 14 12 10 9 9 9 9 6 5 5 6 7 7 6 6 6 6 6 5 4 4 3 3 3 2 2 2 2 2 3 2 2 2
16 16 16 17 17 17 17 17 16 16 16 15 15 14 13 11 10 9 9 9 7 5 4 5 6 6 6 5 5 5 5 5 5 4 3 3 3 3 3 3 3 3 2 2 2 2 2
16 16 17 17 17 17 17 17 17 16 16 15 14 14 12 11 10 9 9 8 6 5 5 6 6 6 5 5 5 5 5 5 4 3 3 3 3 3 3 3 3 3 2 1 1 1 1
16 16 17 17 17 17 17 16 16 16 16 15 14 13 11 11 10 9 8 7 6 6 6 6 6 6 5 5 5 4 4 4 3 3 3 2 3 3 3 3 3 2 2 1 1 1 1
16 16 16 16 16 16 16 16 16 16 15 15 13 12 11 10 10 9 8 6 6 7 7 7 6 6 5 5 4 4 4 4 4 3 3 3 3 3 3 3 3 3 2 2 2 1 1
16 16 16 16 16 16 16 16 16 16 15 14 13 11 10 10 10 9 7 6 7 7 7 7 6 6 6 5 5 4 4 4 4 4 3 3 3 3 4 4 4 3 3 3 2 2 1
16 16 16 16 16 16 16 16 16 16 15 14 13 11 10 10 9 8 7 7 7 8 7 7 6 6 6 5 5 5 4 4 4 4 3 3 3 3 4 4 3 3 3 3 3 2 1
16 16 16 16 16 16 16 16 16 16 16 14 12 10 10 9 8 7 7 7 8 8 8 7 7 6 6 5 5 5 4 4 4 3 3 3 3 3 3 3 3 3 3 3 3 2 2
16 16 16 16 16 16 16 16 16 16 15 14 12 10 10 9 8 8 8 8 8 8 8 7 6 6 5 5 4 4 4 3 3 3 3 2 2 2 2 3 3 3 3 3 3 3 3
16 16 16 16 16 16 16 16 15 15 15 13 12 10 10 9 9 8 8 8 8 7 7 7 6 6 5 4 4 4 3 3 3 3 3 3 2 2 2 2 2 2 3 3 3 3 3
17 16 16 16 16 16 16 16 16 15 14 13 12 11 10 10 9 9 9 8 7 7 7 6 6 6 5 4 4 4 4 4 4 3 3 3 3 2 2 2 2 2 2 3 3 3 2
17 17 16 16 16 16 16 16 16 15 15 14 13 12 12 11 10 9 9 8 7 7 7 7 7 7 6 6 6 6 5 5 5 5 4 4 3 3 2 2 2 2 2 2 2 2 2
17 17 17 17 17 16 16 16 16 16 15 15 14 14 12 11 10 10 9 9 9 9 9 9 9 8 8 9 9 9 8 8 8 7 6 5 4 3 3 2 2 3 3 3 2 2 2
17 17 17 17 16 16 16 16 16 16 16 15 15 14 13 11 10 10 10 10 10 10 10 10 10 10 10 11 10 10 9 9 8 8 7 7 6 4 3 3 2 3 3 3 3 3 3
16 16 16 16 16 16 15 15 15 15 15 15 14 14 13 11 11 12 11 11 11 11 11 11 11 11 11 11 10 8 8 8 7 7 7 7 7 5 4 3 3 3 4 4 3 3 3
16 16 16 16 16 15 15 15 15 14 14 14 13 13 13 12 12 12 12 12 11 11 11 11 10 10 10 10 9 7 6 7 6 6 6 6 6 5 4 3 3 4 4 3 3 3 4
16 16 15 15 15 15 15 15 14 14 13 13 13 13 13 13 13 13 12 12 11 10 10 9 8 8 8 8 7 6 6 6 6 6 5 5 4 4 4 3 4 4 4 3 4 5 6
16 15 15 15 15 15 15 14 13 13 13 12 12 12 13 13 13 12 11 10 9 7 7 6 5 5 4 5 5 5 5 5 5 5 5 4 4 3 3 4 4 6 5 5 6 8 9
15 15 15 14 14 14 14 13 13 12 12 12 12 12 12 12 12 11 10 8 7 5 4 4 3 2 2 2 2 3 4 4 4 4 4 5 4 3 3 3 5 7 7 7 8 10 10